This demonstration page uses our WeatherBlox Daily Observations layout. Learn more.

40.92945, -100.16068

Hourly Observations for December 4, 2019

Temp ( °F °C ) Dew Point ( °F °C ) Humidity (%) Winds ( mph kmh ) Pressure ( in mb ) Visibility ( mi km ) Precip ( " mm )
12:15 am 00:15 Clear 30 -1 28 -2.2 92 92 WNW 7 11 30.11 1020 10 16.0934 0 0
12:35 am 00:35 Clear 30 -0.9 28 -2.2 91 91 WNW 7 11 30.11 1020 10 16.0934 0 0
12:55 am 00:55 Clear 31 -0.5 29 -1.9 90 90 W 8 13 30.09 1019 10 16.0934 0 0
1:15 am 01:15 Clear 30 -1.2 28 -2.4 92 92 WNW 8 13 30.1 1019 10 16.0934 0 0
1:35 am 01:35 Clear 30 -0.9 28 -2.3 90 90 NW 7 11 30.1 1019 10 16.0934 0 0
1:55 am 01:55 Clear 29 -1.7 27 -2.8 92 92 WNW 5 7 30.1 1019 10 16.0934 0 0
2:15 am 02:15 Clear 29 -1.6 27 -2.7 92 92 WNW 6 9 30.1 1019 10 16.0934 0 0
2:35 am 02:35 Clear 28 -2 27 -3 93 93 WNW 9 15 30.11 1020 10 16.0934 0 0
2:55 am 02:55 Clear 29 -1.9 27 -2.9 93 93 WNW 6 9 30.11 1020 10 16.0934 0 0
3:15 am 03:15 Clear 28 -2.2 26 -3.1 94 94 WNW 7 11 30.11 1020 10 16.0934 0 0
3:35 am 03:35 Clear 28 -2.1 26 -3.1 93 93 NW 7 11 30.11 1020 10 16.0934 0 0
3:55 am 03:55 Clear 29 -1.8 27 -3 92 92 WNW 9 15 30.1 1019 10 16.0934 0 0
4:15 am 04:15 Clear 28 -2 27 -3 93 93 WNW 10 17 30.11 1020 10 16.0934 0 0
4:35 am 04:35 Clear 29 -1.5 27 -2.6 92 92 WNW 12 19 30.1 1019 10 16.0934 0 0
4:55 am 04:55 Clear 31 -0.5 28 -2 90 90 WNW 13 20 30.08 1019 10 16.0934 0 0
5:15 am 05:15 Clear 32 0 29 -1.6 89 89 WNW 13 20 30.08 1019 10 16.0934 0 0
5:35 am 05:35 Clear 32 0 29 -1.6 89 89 WNW 14 22 30.08 1019 10 16.0934 0 0
5:55 am 05:55 Clear 32 -0.2 29 -1.9 88 88 WNW 8 13 30.08 1019 10 16.0934 0 0
6:15 am 06:15 Clear 31 -0.5 28 -2 90 90 WNW 9 15 30.08 1019 10 16.0934 0 0
6:35 am 06:35 Clear 31 -0.4 28 -2 89 89 WNW 13 20 30.08 1019 10 16.0934 0 0
6:55 am 06:55 Clear 32 0 28 -2 87 87 NW 13 20 30.09 1019 10 16.0934 0 0
7:15 am 07:15 Clear 32 0 28 -2.1 86 86 W 14 22 30.1 1019 10 16.0934 0 0
7:35 am 07:35 Clear 31 -0.6 28 -2.3 88 88 W 12 19 30.1 1019 10 16.0934 0 0
7:55 am 07:55 Sunny 29 -1.7 27 -3 91 91 W 7 11 30.11 1020 10 16.0934 0 0
8:15 am 08:15 Sunny 29 -1.7 27 -2.7 93 93 WNW 7 11 30.12 1020 10 16.0934 0 0
8:35 am 08:35 Sunny 30 -1.2 28 -2.5 91 91 WNW 8 13 30.12 1020 10 16.0934 0 0
8:55 am 08:55 Sunny 31 -0.4 28 -2 89 89 WNW 9 15 30.11 1020 10 16.0934 0 0
9:15 am 09:15 Sunny 32 0 29 -1.6 89 89 W 7 11 30.12 1020 10 16.0934 0 0
9:35 am 09:35 Sunny 33 0.3 30 -1.2 90 90 W 7 11 30.11 1020 10 16.0934 0 0
9:55 am 09:55 Sunny 34 1.3 30 -1 85 85 WNW 8 13 30.1 1019 10 16.0934 0 0
10:15 am 10:15 Sunny 36 2.2 31 -0.4 83 83 WNW 9 15 30.09 1019 10 16.0934 0 0
10:35 am 10:35 Sunny 37 2.9 31 -0.5 79 79 WNW 10 17 30.09 1019 10 16.0934 0 0
10:55 am 10:55 Sunny 38 3.5 31 -0.3 76 76 WNW 9 15 30.08 1019 10 16.0934 0 0
11:15 am 11:15 Sunny 40 4.3 32 0 74 74 WNW 9 15 30.06 1018 10 16.0934 0 0
11:35 am 11:35 Hazy 40 4.5 33 0.4 75 75 NW 8 13 30.05 1018 5 8.0467 0 0
11:55 am 11:55 Sunny 41 5.2 33 0.6 72 72 NW 6 9 30.04 1017 10 16.0934 0 0
12:15 pm 12:15 Sunny 42 5.3 33 0.7 73 73 WNW 6 9 30.04 1017 10 16.0934 0 0
12:35 pm 12:35 Sunny 42 5.7 34 0.9 72 72 WNW 8 13 30.02 1017 10 16.0934 0 0
12:55 pm 12:55 Sunny 44 6.6 35 1.6 71 71 W 8 13 30.01 1016 10 16.0934 0 0
1:15 pm 13:15 Sunny 46 8 34 1.3 63 63 W 5 7 29.99 1016 10 16.0934 0 0
1:35 pm 13:35 Sunny 48 8.7 33 0.6 57 57 W 3 6 29.97 1015 10 16.0934 0 0
1:55 pm 13:55 Sunny 48 8.7 35 1.8 62 62 W 5 7 29.97 1015 10 16.0934 0 0
2:15 pm 14:15 Sunny 48 9.1 36 2.3 63 63 W 6 9 29.96 1015 10 16.0934 0 0
2:35 pm 14:35 Sunny 48 9.1 36 2.2 62 62 WNW 5 7 29.95 1014 10 16.0934 0 0
2:55 pm 14:55 Sunny 49 9.6 37 2.5 62 62 W 5 7 29.94 1014 10 16.0934 0 0
3:10 pm 15:10 Sunny 49 9.5 36 2.3 61 61 W 6 9 29.95 1014 10 16.0934 0 0
3:35 pm 15:35 Sunny 48 9 37 2.9 66 66 SW 7 11 29.95 1014 10 16.0934 0 0
3:55 pm 15:55 Sunny 47 8.5 37 2.6 67 67 SW 6 9 29.95 1014 10 16.0934 0 0
4:15 pm 16:15 Sunny 46 7.6 36 2.1 68 68 SW 6 9 29.95 1014 10 16.0934 0 0
4:35 pm 16:35 Sunny 44 6.9 35 1.8 70 70 SW 3 6 29.95 1014 10 16.0934 0 0
4:55 pm 16:55 Sunny 43 6.2 35 1.7 73 73 Calm 29.96 1014 10 16.0934 0 0
5:15 pm 17:15 Clear 40 4.6 34 1 78 78 Calm 29.98 1015 10 16.0934 0 0
5:35 pm 17:35 Clear 39 3.9 33 0.6 79 79 Calm 29.99 1016 10 16.0934 0 0
5:55 pm 17:55 Clear 37 3 33 0.5 84 84 Calm 30 1016 10 16.0934 0 0
6:15 pm 18:15 Clear 35 1.4 31 -0.3 89 89 Calm 30.01 1016 10 16.0934 0 0
6:35 pm 18:35 Clear 34 1 31 -0.3 91 91 Calm 30.02 1016 10 16.0934 0 0
6:55 pm 18:55 Clear 32 0 31 -0.7 95 95 Calm 30.02 1016 10 16.0934 0 0
7:15 pm 19:15 Clear 33 0.3 31 -0.5 94 94 Calm 30.01 1016 10 16.0934 0 0
7:35 pm 19:35 Clear 32 -0.1 30 -1 94 94 Calm 30.02 1017 10 16.0934 0 0
7:55 pm 19:55 Clear 31 -0.8 29 -1.5 95 95 W 7 11 30.02 1017 10 16.0934 0 0
8:15 pm 20:15 Clear 32 0.1 31 -0.8 94 94 SW 6 9 30.01 1016 10 16.0934 0 0
8:35 pm 20:35 Clear 31 -0.5 29 -1.5 93 93 SW 5 7 30.01 1016 10 16.0934 0 0
8:55 pm 20:55 Clear 31 -0.8 29 -1.7 94 94 WSW 5 7 30.01 1016 10 16.0934 0 0
9:15 pm 21:15 Clear 31 -0.6 29 -1.5 94 94 Calm 30.01 1016 10 16.0934 0 0
9:35 pm 21:35 Clear 30 -1.2 28 -2 94 94 NW 5 7 30.02 1017 10 16.0934 0 0
9:55 pm 21:55 Clear 29 -1.5 28 -2.1 96 96 N 6 9 30.02 1017 10 16.0934 0 0
10:15 pm 22:15 Clear 29 -1.5 28 -2.1 96 96 NW 3 6 30.02 1017 10 16.0934 0 0
10:35 pm 22:35 Clear 29 -1.7 28 -2.2 96 96 N 5 7 30.02 1017 10 16.0934 0 0
10:55 pm 22:55 Clear 29 -1.6 28 -2.1 96 96 Calm 30.02 1017 10 16.0934 0 0
11:15 pm 23:15 Clear 28 -2.2 27 -2.8 96 96 Calm 30.03 1017 10 16.0934 0 0
11:35 pm 23:35 Clear 28 -2.2 27 -2.7 96 96 Calm 30.03 1017 10 16.0934 0 0
11:55 pm 23:55 Clear 28 -2.4 27 -2.9 96 96 Calm 30.03 1017 10 16.0934 0 0

Powered by AerisWeather